FW9687 Weather Reports


Display with metric or nautical units.
time (UTC)temp
F
wind
direction
speed
MPH
gust
MPH
rain 1hr
in
rain 24hr
in
rain mn
in
humidity
%
barometer
mb
20260506034547 68 5 13.0 15.0 0.00 0.00 0.00 37 1008.4
20260506033050 69 5 12.0 13.0 0.00 0.00 0.00 36 1008.3
20260506031552 69 5 11.0 13.0 0.00 0.00 0.00 37 1008.3
20260506030048 69 5 12.0 14.0 0.00 0.00 0.00 37 1008.1
20260506024557 70 5 14.0 17.0 0.00 0.00 0.00 36 1007.9
20260506023047 70 5 13.0 15.0 0.00 0.00 0.00 37 1007.8
20260506021547 70 5 12.0 16.0 0.00 0.00 0.00 36 1007.8
20260506020047 70 5 12.0 17.0 0.00 0.00 0.00 35 1007.7
20260506014546 71 5 11.0 16.0 0.00 0.00 0.00 34 1007.6
20260506013043 72 5 14.0 21.0 0.00 0.00 0.00 33 1007.5
20260506011544 72 5 16.0 20.0 0.00 0.00 0.00 33 1007.3
20260506010043 72 5 17.0 23.0 0.00 0.00 0.00 32 1007.2
20260506004541 73 5 18.0 27.0 0.00 0.00 0.00 31 1007.2
20260506003038 74 5 17.0 26.0 0.00 0.00 0.00 30 1007.2
20260506001538 74 5 20.0 26.0 0.00 0.00 0.00 29 1007.2
20260506000032 75 5 21.0 31.0 0.00 0.00 0.00 29 1007.3
20260505234536 76 5 25.0 33.0 0.00 0.00 0.00 27 1007.2
20260505233036 76 5 19.0 33.0 0.00 0.00 0.00 28 1007.0
20260505231544 76 5 21.0 27.0 0.00 0.00 0.00 28 1007.0
20260505230048 76 5 23.0 35.0 0.00 0.00 0.00 27 1007.0
20260505224533 77 5 24.0 32.0 0.00 0.00 0.00 26 1007.1
20260505223033 75 5 23.0 30.0 0.00 0.00 0.00 26 1007.1
20260505221530 74 5 19.0 29.0 0.00 0.00 0.00 27 1007.2
20260505220032 74 5 25.0 31.0 0.00 0.00 0.00 27 1007.5
20260505214527 74 5 21.0 28.0 0.00 0.00 0.00 27 1007.5
20260505213040 73 5 20.0 29.0 0.00 0.00 0.00 27 1007.7
20260505211533 73 5 20.0 28.0 0.00 0.00 0.00 26 1008.0
20260505210034 73 5 21.0 30.0 0.00 0.00 0.00 26 1008.2
20260505204531 73 5 26.0 34.0 0.00 0.00 0.00 26 1008.3
20260505203029 73 5 21.0 32.0 0.00 0.00 0.00 27 1008.3
20260505201529 73 5 21.0 29.0 0.00 0.00 0.00 26 1008.3
20260505200029 73 5 17.0 28.0 0.00 0.00 0.00 28 1008.6
20260505194528 73 5 22.0 30.0 0.00 0.00 0.00 27 1008.5
20260505193020 73 5 20.0 29.0 0.00 0.00 0.00 28 1008.3
20260505191519 73 5 20.0 29.0 0.00 0.00 0.00 29 1008.4
20260505190018 73 5 26.0 34.0 0.00 0.00 0.00 29 1008.3
20260505184517 73 5 22.0 31.0 0.00 0.00 0.00 30 1008.5
20260505183030 72 5 24.0 32.0 0.00 0.00 0.00 30 1008.6
20260505181522 73 5 21.0 34.0 0.00 0.00 0.00 30 1008.6
20260505180040 72 5 23.0 29.0 0.00 0.00 0.00 30 1008.9
20260505174519 72 5 13.0 19.0 0.00 0.00 0.00 29 1009.0
20260505173025 72 5 15.0 20.0 0.00 0.00 0.00 29 1008.9
20260505171530 72 5 15.0 23.0 0.00 0.00 0.00 28 1008.9
20260505170033 72 5 15.0 21.0 0.00 0.00 0.00 29 1009.1
20260505164522 71 5 15.0 19.0 0.00 0.00 0.00 28 1008.9
20260505163029 71 5 14.0 22.0 0.00 0.00 0.00 28 1009.0
20260505161525 71 5 19.0 25.0 0.00 0.00 0.00 28 1008.8
20260505153015 71 5 16.0 19.0 0.00 0.00 0.00 28 1008.7
20260505151512 71 5 15.0 19.0 0.00 0.00 0.00 28 1008.9
20260505124546 69 5 11.0 16.0 0.00 0.00 0.00 27 1007.4
20260505123044 69 5 11.0 16.0 0.00 0.01 0.00 26 1007.2
20260505121541 70 5 12.0 18.0 0.00 0.01 0.00 26 1006.9
20260505120041 69 5 13.0 17.0 0.00 0.01 0.00 27 1006.8
20260505114541 67 5 12.0 16.0 0.00 0.01 0.00 28 1006.6
20260505113039 67 5 10.0 14.0 0.00 0.01 0.00 28 1006.8
20260505111533 68 5 11.0 14.0 0.00 0.01 0.00 28 1006.7
20260505101557 68 5 11.0 16.0 0.00 0.01 0.00 26 1006.7
20260505100057 69 5 14.0 18.0 0.00 0.01 0.00 26 1006.6
20260505094537 67 5 10.0 12.0 0.00 0.01 0.00 30 1006.7
20260505093032 66 5 9.0 12.0 0.00 0.01 0.00 31 1006.8
20260505091532 67 5 10.0 11.0 0.00 0.01 0.00 30 1006.7
20260505090030 68 5 8.0 14.0 0.00 0.01 0.00 29 1006.9
20260505084530 70 5 15.0 20.0 0.00 0.01 0.00 27 1007.1
20260505083031 70 5 14.0 20.0 0.00 0.01 0.00 27 1006.9
20260505081531 70 5 14.0 19.0 0.00 0.01 0.00 27 1007.0
20260505080029 70 5 13.0 18.0 0.00 0.01 0.00 27 1007.0
20260505074528 69 5 11.0 16.0 0.00 0.01 0.00 29 1007.3
20260505073036 68 5 11.0 14.0 0.00 0.01 0.00 30 1007.2
20260505071527 69 5 12.0 15.0 0.00 0.01 0.00 28 1007.3
20260505070025 70 5 12.0 15.0 0.00 0.01 0.00 28 1007.4
20260505064525 70 5 11.0 14.0 0.00 0.01 0.00 27 1007.5
20260505063025 71 5 12.0 15.0 0.00 0.02 0.00 27 1007.6
20260505061526 71 5 10.0 14.0 0.00 0.02 0.00 27 1007.7
20260505060023 72 5 12.0 17.0 0.00 0.02 0.00 26 1007.7
20260505054522 72 5 13.0 15.0 0.00 0.02 0.00 26 1008.0
20260505053035 73 5 14.0 17.0 0.00 0.02 0.00 25 1008.1
20260505051536 73 5 13.0 16.0 0.00 0.02 0.00 26 1008.2
20260505041525 72 5 12.0 15.0 0.00 0.02 0.00 26 1008.5
20260505040023 72 5 10.0 12.0 0.00 0.02 0.00 25 1008.3